Location: Molveno
(46.1500°N, 10.9667°E)
Time: 01:32:31
(UTC+00:00)

Cosmos 1825 - Pass Details

Date: 05 July 2020
Orbit: 502 x 509 km, 82.5° (Epoch: 11 August)

Event Time Altitude Azimuth Distance (km) Brightness Sun altitude
Exits shadow 21:58:07 40° 113° (ESE) 757 2.7 -18.7°
Maximum altitude 21:58:32 42° 94° (E) 734 2.7 -18.7°
Drops below altitude 10° 22:02:09 10° 22° (NNE) 1,737 5.5 -18.9°
Sets 22:04:21 0° 16° (NNE) 2,628 6.7 -19.0°
